Location: Vesunti
(61.5000°N, 22.8333°E)
Time: 09:19:29
(UTC+00:00)

Cosmos 1869 Rocket - Pass Details

Date: 17 February 2020
Orbit: 604 x 634 km, 82.5° (Epoch: 27 March)

Event Time Altitude Azimuth Distance (km) Brightness Sun altitude
Rises 05:14:01 0° 345° (NNW) 2,898 6.7 -7.0°
Reaches altitude 10° 05:16:17 10° 349° (N) 1,984 5.9 -6.7°
Maximum altitude 05:20:38 61° 71° (ENE) 698 4.2 -6.2°
Drops below altitude 10° 05:24:55 10° 152° (SSE) 1,958 6.8 -5.7°
Sets 05:27:09 0° 156° (SSE) 2,856 7.6 -5.5°
